User: anonymous   Login
Location: Lake Superior Provincial Park
(47.3335°N, 84.6162°W)
Time: 21:03:15
(UTC-04:00)
Language:

Cosmos 2333 Rocket - Orbit

View from above orbital plane
View from above orbital plane
View from above satellite
View from above satellite

Ground track
Ground track

The orbit data is extracted from the following two-line orbital elements,

1 24298U 96051B   16205.83511164  .00000092  00000-0  76173-4 0  9998
2 24298  70.8377  34.1659 0017545 301.0874  58.8524 14.12415406 25458
Epoch (UTC): 23 July 2016 20:02:33
Eccentricity: 0.0017545
inclination: 70.8377°
perigee height: 838 km
apogee height: 864 km
right ascension of ascending node: 34.1659°
argument of perigee: 301.0874°
revolutions per day: 14.12415406
mean anomaly at epoch: 58.8524°
orbit number at epoch: 2545

The dashed part of the orbit path shows where the satellite is in the earth's shadow,  

DLR